Location: Zagreb
(45.8000°N, 16.0000°E)
Time: 07:35:00
(UTC+01:00)

ISS - Visible Passes

Search period start: 01 December 2022 00:00
Search period end: 11 December 2022 00:00
Orbit: 414 x 421 km, 51.6° (Epoch: 30 November)

Date Brightness Start Highest point End Pass type
(mag) Time Alt. Az. Time Alt. Az. Time Alt. Az.
01 Dec -3.4 17:52:35 10° NW 17:55:50 46° NNE 17:56:06 45° NE visible
02 Dec -3.0 17:04:18 10° NW 17:07:28 36° NNE 17:10:01 14° E visible
02 Dec -1.9 18:41:02 10° WNW 18:42:56 30° W 18:42:56 30° W visible
03 Dec -3.9 17:52:34 10° WNW 17:55:55 88° NE 17:56:49 46° ESE visible
04 Dec -3.7 17:03:58 10° WNW 17:07:17 61° NNE 17:10:36 10° ESE visible
04 Dec -1.6 18:41:02 10° W 18:43:39 24° SW 18:43:39 24° SW visible
05 Dec -2.5 17:52:00 10° WNW 17:55:08 39° SW 17:57:40 14° SSE visible
06 Dec -3.3 17:02:57 10° WNW 17:06:16 64° SSW 17:09:34 10° SE visible
06 Dec -0.3 18:42:09 10° SW 18:42:24 10° SW 18:42:37 10° SW visible
07 Dec -0.8 17:51:15 10° W 17:53:30 17° SW 17:55:44 10° S visible
08 Dec -1.4 17:01:30 10° W 17:04:23 27° SW 17:07:16 10° SSE visible
10 Dec -0.2 17:00:21 10° WSW 17:01:37 12° SW 17:02:53 10° SSW visible
